Weather History for West Palm Beach, FL

Change the Weather History Date:

Wednesday, April 23, 2014

  Actual Average Record
Temperature  
Mean Temperature 75 °F 75 °F  
Max Temperature 84 °F 83 °F 95 °F (1971)
Min Temperature 65 °F 67 °F 47 °F (1910)
Degree Days  
Heating Degree Days 0 0  
Month to date heating degree days 0 0  
Since 1 July heating degree days 122 229  
Cooling Degree Days 10 10  
Month to date cooling degree days 232 193  
Year to date cooling degree days 780 621  
Growing Degree Days 24 (Base 50)    
Moisture  
Dew Point 63 °F    
Average Humidity 67    
Maximum Humidity 87    
Minimum Humidity 47    
Precipitation  
Precipitation 0.00 in 0.12 in 2.00 in (1927)
Month to date precipitation 1.04 2.94  
Year to date precipitation 14.92 13.48  
Snow  
Snow 0.00 in - - ()
Month to date snowfall 0.0  
Since 1 July snowfall 0.0  
Snow Depth 0.00 in    
Sea Level Pressure  
Sea Level Pressure 29.91 in    
Wind  
Wind Speed 7 mph (West)    
Max Wind Speed 13 mph    
Max Gust Speed 16 mph    
Visibility 10 miles    
Events      
T = Trace of Precipitation, MM = Missing Value Source: NWS Daily Summary

Daily Weather History Graph

Daily Weather History Graph

Search for Another Location

Airport:

Trip Planner

Search our weather history database for the weather conditions in past years. The results will help you decide how hot, cold, wet, or windy it might be!

Date:

Astronomy

Apr. 23, 2014 Rise Set
Actual Time 6:49 AM EDT 7:48 PM EDT
Civil Twilight 6:25 AM EDT 8:12 PM EDT
Nautical Twilight 5:56 AM EDT 8:41 PM EDT
Astronomical Twilight 5:27 AM EDT 9:10 PM EDT
Moon 2:45 AM EDT (4/23) 2:27 PM EDT (4/23)
Length of Visible Light 13h 47m
Length of Day
12h 59m
Waning Crescent, 35% of the Moon is Illuminated
Apr 23
Waning Crescent
Apr 29
New
May 6
First Quarter
May 14
Full
May 21
Last Quarter

Hourly Weather History & Observations

Time (EDT) Temp. Heat Index Dew Point Humidity Pressure Visibility Wind Dir Wind Speed Gust Speed Precip Events Conditions
12:53 AM 71.1 °F - 66.9 °F 87% 29.89 in 10.0 mi WNW 5.8 mph - N/A   Mostly Cloudy
1:53 AM 71.1 °F - 63.0 °F 75% 29.89 in 10.0 mi WNW 6.9 mph - N/A   Partly Cloudy
2:53 AM 68.0 °F - 63.0 °F 84% 29.88 in 10.0 mi West 6.9 mph - N/A   Partly Cloudy
3:53 AM 66.9 °F - 62.1 °F 84% 29.87 in 10.0 mi WNW 5.8 mph - N/A   Scattered Clouds
4:53 AM 66.0 °F - 61.0 °F 84% 29.88 in 10.0 mi WNW 5.8 mph - N/A   Scattered Clouds
5:53 AM 66.0 °F - 61.0 °F 84% 29.88 in 10.0 mi WNW 5.8 mph - N/A   Mostly Cloudy
6:53 AM 64.9 °F - 61.0 °F 87% 29.90 in 10.0 mi WNW 8.1 mph - N/A   Scattered Clouds
7:53 AM 68.0 °F - 62.1 °F 81% 29.92 in 10.0 mi NW 10.4 mph - N/A   Scattered Clouds
8:53 AM 71.1 °F - 61.0 °F 70% 29.94 in 10.0 mi NW 11.5 mph - N/A   Partly Cloudy
9:53 AM 75.0 °F - 61.0 °F 62% 29.95 in 10.0 mi NW 10.4 mph - N/A   Partly Cloudy
10:53 AM 77.0 °F - 62.1 °F 60% 29.95 in 10.0 mi Variable 3.5 mph - N/A   Partly Cloudy
11:53 AM 79.0 °F - 62.1 °F 56% 29.95 in 10.0 mi Calm Calm - N/A   Scattered Clouds
12:53 PM 80.1 °F 81.2 °F 62.1 °F 54% 29.93 in 10.0 mi Variable 3.5 mph - N/A   Scattered Clouds
1:53 PM 82.0 °F 82.7 °F 61.0 °F 49% 29.92 in 10.0 mi SSW 10.4 mph - N/A   Scattered Clouds
2:53 PM 82.9 °F 83.3 °F 61.0 °F 47% 29.90 in 10.0 mi West 9.2 mph - N/A   Scattered Clouds
3:53 PM 80.6 °F 82.3 °F 64.4 °F 58% 29.88 in 10.0 mi East 10.4 mph - N/A   Scattered Clouds
4:53 PM 80.1 °F 81.9 °F 64.9 °F 60% 29.88 in 10.0 mi East 9.2 mph - N/A   Partly Cloudy
5:53 PM 80.1 °F 82.1 °F 66.0 °F 62% 29.88 in 10.0 mi East 10.4 mph - N/A   Partly Cloudy
6:53 PM 79.0 °F - 66.0 °F 64% 29.89 in 10.0 mi ESE 8.1 mph - N/A   Partly Cloudy
7:53 PM 77.0 °F - 64.9 °F 66% 29.91 in 10.0 mi ESE 8.1 mph - N/A   Partly Cloudy
8:53 PM 75.9 °F - 64.9 °F 69% 29.92 in 10.0 mi SE 8.1 mph - N/A   Partly Cloudy
9:53 PM 75.9 °F - 64.9 °F 69% 29.93 in 10.0 mi SE 5.8 mph - N/A   Partly Cloudy
10:53 PM 75.0 °F - 64.9 °F 71% 29.94 in 10.0 mi SE 5.8 mph - N/A   Clear
11:53 PM 73.9 °F - 66.0 °F 76% 29.94 in 10.0 mi SE 4.6 mph - N/A   Partly Cloudy